Check out our new BloomSky Weather System.

Active alerts

Houston, TX
  Details for Houston, TX Dense Fog Advisory


Thunder radar  blitzortung!


Rain radar more information rain snow radar


Visit our other weather sites:

Template documentation
and downloads

And another site



Weather Underground History page Text

Daily Summary for June 16, 2017 Units:  Metric    English   Both
« Previous Day
Next Day »
Daily Weekly Monthly Yearly Custom
  High: Low: Average:
Temperature: 35.8 °C 24.4 °C 29.7 °C
Dew Point: 25.6 °C 23 °C 24.1 °C
Humidity: 95 % 48 % 74 %
Wind Speed: 19.3 km/h 0 km/h 6.6 km/h
Wind Gust: 27.4 km/h - -
Wind:- - South
Pressure: 1013.4 hPa 1007.7 hPa -
Precipitation: 0 mm    
Historical Graphs
 
 
Tabular Data for June 16, 2017
Time Temperature Dew Point Pressure Wind Wind Speed Wind Gust Humidity Rainfall Rate (Hourly)
00:02 26.8 °C 23.9 °C 1013.1 hPa South 3.2 km/h 6.4 km/h 84 % 0 mm
00:07 26.7 °C 23.8 °C 1013.1 hPa SSE 3.2 km/h 9.7 km/h 84 % 0 mm
00:12 26.7 °C 24 °C 1013.1 hPa SSE 6.4 km/h 9.7 km/h 85 % 0 mm
00:17 26.6 °C 23.9 °C 1013.1 hPa South 3.2 km/h 9.7 km/h 85 % 0 mm
00:22 26.6 °C 23.9 °C 1013.1 hPa SSW 1.6 km/h 12.9 km/h 85 % 0 mm
00:27 26.6 °C 24.1 °C 1013.4 hPa SSE 1.6 km/h 12.9 km/h 86 % 0 mm
00:32 26.5 °C 24 °C 1013.1 hPa SSE 6.4 km/h 12.9 km/h 86 % 0 mm
00:37 26.5 °C 24 °C 1013.1 hPa South 3.2 km/h 8 km/h 86 % 0 mm
00:39 26.5 °C 24 °C 1013.1 hPa South 3.2 km/h 8 km/h 86 % 0 mm
00:44 26.4 °C 24.1 °C 1013.4 hPa SSE 4.8 km/h 8 km/h 87 % 0 mm
00:49 26.4 °C 24.1 °C 1013.1 hPa SE 6.4 km/h 9.7 km/h 87 % 0 mm
00:54 26.4 °C 24.1 °C 1013.1 hPa SSE 4.8 km/h 9.7 km/h 87 % 0 mm
00:59 26.4 °C 24.1 °C 1013.1 hPa SSW 3.2 km/h 9.7 km/h 87 % 0 mm
01:04 26.3 °C 24.2 °C 1013.1 hPa South 3.2 km/h 8 km/h 88 % 0 mm
01:09 26.2 °C 24.1 °C 1013.1 hPa South 3.2 km/h 8 km/h 88 % 0 mm
01:14 26.2 °C 24.1 °C 1013.4 hPa Calm   6.4 km/h 88 % 0 mm
01:19 26.1 °C 24.1 °C 1013.4 hPa Calm   4.8 km/h 89 % 0 mm
01:24 26.1 °C 24.1 °C 1013.4 hPa Calm   6.4 km/h 89 % 0 mm
01:29 26.1 °C 24.1 °C 1013.4 hPa SE 1.6 km/h 6.4 km/h 89 % 0 mm
01:34 26.1 °C 24.1 °C 1013.1 hPa SE 1.6 km/h 6.4 km/h 89 % 0 mm
01:39 26 °C 24 °C 1012.8 hPa SSE 3.2 km/h 6.4 km/h 89 % 0 mm
01:44 26 °C 24 °C 1012.8 hPa South 3.2 km/h 6.4 km/h 89 % 0 mm
01:49 26 °C 24 °C 1013.1 hPa SE 1.6 km/h 6.4 km/h 89 % 0 mm
01:54 25.9 °C 23.9 °C 1013.1 hPa SSE 3.2 km/h 6.4 km/h 89 % 0 mm
01:59 25.9 °C 23.9 °C 1012.8 hPa SSE 1.6 km/h 6.4 km/h 89 % 0 mm
02:04 25.9 °C 23.9 °C 1012.8 hPa Calm   6.4 km/h 89 % 0 mm
02:10 25.8 °C 24 °C 1012.8 hPa SE 1.6 km/h 6.4 km/h 90 % 0 mm
02:15 25.8 °C 24 °C 1012.8 hPa Calm   6.4 km/h 90 % 0 mm
02:20 25.8 °C 24 °C 1012.8 hPa South 3.2 km/h 4.8 km/h 90 % 0 mm
02:25 25.8 °C 24 °C 1012.8 hPa SE 1.6 km/h 4.8 km/h 90 % 0 mm
02:30 25.8 °C 24 °C 1012.8 hPa SSE 1.6 km/h 4.8 km/h 90 % 0 mm
02:35 25.7 °C 23.9 °C 1012.4 hPa SSW 3.2 km/h 4.8 km/h 90 % 0 mm
02:40 25.6 °C 23.8 °C 1012.4 hPa South 1.6 km/h 4.8 km/h 90 % 0 mm
02:45 25.6 °C 23.8 °C 1012.1 hPa SSW 1.6 km/h 4.8 km/h 90 % 0 mm
02:50 25.5 °C 23.9 °C 1012.1 hPa SSW 1.6 km/h 4.8 km/h 91 % 0 mm
02:55 25.4 °C 23.8 °C 1012.4 hPa South 3.2 km/h 4.8 km/h 91 % 0 mm
03:00 25.4 °C 23.8 °C 1012.4 hPa Calm   4.8 km/h 91 % 0 mm
03:05 25.4 °C 23.8 °C 1012.4 hPa SSE 1.6 km/h 4.8 km/h 91 % 0 mm
03:10 25.3 °C 23.7 °C 1012.4 hPa Calm   3.2 km/h 91 % 0 mm
03:15 25.3 °C 23.9 °C 1012.8 hPa SSW 1.6 km/h 3.2 km/h 92 % 0 mm
03:20 25.2 °C 23.8 °C 1012.8 hPa SSW 1.6 km/h 3.2 km/h 92 % 0 mm
03:25 25.2 °C 23.8 °C 1012.8 hPa Calm   3.2 km/h 92 % 0 mm
03:30 25 °C 23.6 °C 1012.8 hPa Calm   1.6 km/h 92 % 0 mm
03:35 24.8 °C 23.4 °C 1012.8 hPa Calm   1.6 km/h 92 % 0 mm
03:41 24.9 °C 23.5 °C 1012.8 hPa Calm   1.6 km/h 92 % 0 mm
03:46 24.9 °C 23.7 °C 1012.4 hPa South 3.2 km/h 3.2 km/h 93 % 0 mm
03:51 24.9 °C 23.7 °C 1012.4 hPa Calm   3.2 km/h 93 % 0 mm
03:56 24.9 °C 23.7 °C 1012.4 hPa Calm   3.2 km/h 93 % 0 mm
04:01 24.9 °C 23.7 °C 1012.4 hPa Calm   3.2 km/h 93 % 0 mm
04:06 24.9 °C 23.7 °C 1012.4 hPa Calm   3.2 km/h 93 % 0 mm
04:11 24.9 °C 23.7 °C 1012.4 hPa Calm   1.6 km/h 93 % 0 mm
04:16 24.8 °C 23.6 °C 1012.4 hPa Calm   3.2 km/h 93 % 0 mm
04:21 24.8 °C 23.6 °C 1012.4 hPa Calm   3.2 km/h 93 % 0 mm
04:26 24.7 °C 23.5 °C 1012.4 hPa Calm   3.2 km/h 93 % 0 mm
04:32 24.6 °C 23.4 °C 1012.8 hPa Calm   1.6 km/h 93 % 0 mm
04:37 24.6 °C 23.4 °C 1012.4 hPa Calm   1.6 km/h 93 % 0 mm
04:42 24.6 °C 23.6 °C 1012.4 hPa SSW 1.6 km/h 1.6 km/h 94 % 0 mm
04:46 24.6 °C 23.6 °C 1012.4 hPa Calm   1.6 km/h 94 % 0 mm
04:52 24.5 °C 23.5 °C 1012.8 hPa Calm   1.6 km/h 94 % 0 mm
04:57 24.4 °C 23.4 °C 1012.4 hPa Calm   1.6 km/h 94 % 0 mm
05:02 24.5 °C 23.5 °C 1012.1 hPa SSE 3.2 km/h 3.2 km/h 94 % 0 mm
05:07 24.6 °C 23.6 °C 1011.7 hPa SE 3.2 km/h 4.8 km/h 94 % 0 mm
05:12 24.6 °C 23.7 °C 1011.4 hPa SSE 3.2 km/h 6.4 km/h 95 % 0 mm
05:17 24.6 °C 23.6 °C 1011.4 hPa ESE 1.6 km/h 6.4 km/h 94 % 0 mm
05:22 24.7 °C 23.7 °C 1011.4 hPa Calm   6.4 km/h 94 % 0 mm
05:27 24.6 °C 23.6 °C 1011.4 hPa ESE 3.2 km/h 8 km/h 94 % 0 mm
05:32 24.7 °C 23.7 °C 1011.4 hPa SE 3.2 km/h 11.3 km/h 94 % 0 mm
05:37 24.7 °C 23.7 °C 1011.4 hPa SE 1.6 km/h 11.3 km/h 94 % 0 mm
05:42 24.7 °C 23.7 °C 1011.4 hPa ESE 8 km/h 11.3 km/h 94 % 0 mm
05:47 24.7 °C 23.7 °C 1011.4 hPa SSE 6.4 km/h 9.7 km/h 94 % 0 mm
05:52 24.7 °C 23.7 °C 1011.4 hPa South 6.4 km/h 9.7 km/h 94 % 0 mm
05:57 24.6 °C 23.6 °C 1011.4 hPa SSE 8 km/h 9.7 km/h 94 % 0 mm
06:02 24.6 °C 23.6 °C 1011.4 hPa SSE 3.2 km/h 9.7 km/h 94 % 0 mm
06:07 24.6 °C 23.7 °C 1011.4 hPa South 4.8 km/h 9.7 km/h 95 % 0 mm
06:12 24.6 °C 23.7 °C 1011.1 hPa SE 8 km/h 8 km/h 95 % 0 mm
06:17 24.6 °C 23.7 °C 1011.1 hPa SE 4.8 km/h 9.7 km/h 95 % 0 mm
06:22 24.6 °C 23.7 °C 1011.1 hPa SSE 3.2 km/h 12.9 km/h 95 % 0 mm
06:27 24.7 °C 23.8 °C 1011.1 hPa South 4.8 km/h 12.9 km/h 95 % 0 mm
06:32 24.7 °C 23.8 °C 1011.4 hPa SSW 6.4 km/h 12.9 km/h 95 % 0 mm
06:37 24.7 °C 23.8 °C 1011.7 hPa SSE 3.2 km/h 11.3 km/h 95 % 0 mm
06:42 24.8 °C 23.9 °C 1011.7 hPa SSW 4.8 km/h 12.9 km/h 95 % 0 mm
06:46 24.8 °C 23.9 °C 1011.7 hPa SSE 4.8 km/h 12.9 km/h 95 % 0 mm
06:51 24.9 °C 24 °C 1011.4 hPa SSE 4.8 km/h 12.9 km/h 95 % 0 mm
06:52 24.9 °C 24 °C 1011.4 hPa SSE 6.4 km/h 12.9 km/h 95 % 0 mm
06:57 25 °C 24.1 °C 1011.4 hPa SSW 3.2 km/h 12.9 km/h 95 % 0 mm
07:02 25.1 °C 24.2 °C 1011.4 hPa SE 4.8 km/h 12.9 km/h 95 % 0 mm
07:07 25.2 °C 24.2 °C 1011.1 hPa SSE 8 km/h 14.5 km/h 94 % 0 mm
07:12 25.2 °C 24.2 °C 1011.1 hPa SSE 8 km/h 14.5 km/h 94 % 0 mm
07:17 25.3 °C 24.3 °C 1011.4 hPa SSE 8 km/h 14.5 km/h 94 % 0 mm
07:22 25.5 °C 24.5 °C 1011.4 hPa SE 8 km/h 12.9 km/h 94 % 0 mm
07:27 25.6 °C 24.4 °C 1011.4 hPa SSW 4.8 km/h 16.1 km/h 93 % 0 mm
07:32 25.6 °C 24.4 °C 1011.7 hPa SW 3.2 km/h 16.1 km/h 93 % 0 mm
07:38 25.7 °C 24.3 °C 1011.7 hPa SSW 4.8 km/h 16.1 km/h 92 % 0 mm
07:43 25.8 °C 24.4 °C 1011.7 hPa SSW 6.4 km/h 9.7 km/h 92 % 0 mm
07:48 25.9 °C 24.5 °C 1011.7 hPa South 9.7 km/h 9.7 km/h 92 % 0 mm
07:53 26.1 °C 24.7 °C 1011.7 hPa SW 4.8 km/h 12.9 km/h 92 % 0 mm
07:58 26.3 °C 24.7 °C 1011.7 hPa South 6.4 km/h 12.9 km/h 91 % 0 mm
08:03 26.6 °C 24.8 °C 1011.7 hPa SE 9.7 km/h 12.9 km/h 90 % 0 mm
08:08 26.9 °C 24.9 °C 1011.7 hPa South 6.4 km/h 12.9 km/h 89 % 0 mm
08:13 27.2 °C 25 °C 1011.7 hPa SSE 9.7 km/h 14.5 km/h 88 % 0 mm
08:18 27.4 °C 25.2 °C 1011.7 hPa South 3.2 km/h 17.7 km/h 88 % 0 mm
08:23 27.8 °C 25.4 °C 1011.7 hPa SSE 6.4 km/h 17.7 km/h 87 % 0 mm
08:28 28 °C 25.4 °C 1012.1 hPa SW 6.4 km/h 17.7 km/h 86 % 0 mm
08:32 28.1 °C 25.1 °C 1012.4 hPa South 11.3 km/h 16.1 km/h 84 % 0 mm
08:37 28.2 °C 25.2 °C 1012.8 hPa SSW 4.8 km/h 19.3 km/h 84 % 0 mm
08:42 28.5 °C 25.5 °C 1012.8 hPa SSW 9.7 km/h 19.3 km/h 84 % 0 mm
08:47 28.7 °C 25.3 °C 1012.8 hPa WNW 3.2 km/h 19.3 km/h 82 % 0 mm
08:52 28.8 °C 25.2 °C 1012.8 hPa SW 4.8 km/h 14.5 km/h 81 % 0 mm
08:57 28.9 °C 25.1 °C 1012.8 hPa SSW 11.3 km/h 16.1 km/h 80 % 0 mm
09:02 28.8 °C 25 °C 1012.4 hPa SSW 8 km/h 19.3 km/h 80 % 0 mm
09:07 28.8 °C 25 °C 1012.1 hPa SSE 17.7 km/h 19.3 km/h 80 % 0 mm
09:12 28.9 °C 24.9 °C 1011.7 hPa South 6.4 km/h 22.5 km/h 79 % 0 mm
09:17 29.1 °C 25.1 °C 1012.1 hPa SE 9.7 km/h 22.5 km/h 79 % 0 mm
09:22 29.3 °C 25.3 °C 1012.1 hPa SSW 9.7 km/h 22.5 km/h 79 % 0 mm
09:27 29.6 °C 25.4 °C 1012.4 hPa SE 11.3 km/h 22.5 km/h 78 % 0 mm
09:32 29.9 °C 25.6 °C 1012.4 hPa SSW 3.2 km/h 22.5 km/h 78 % 0 mm
09:37 30.3 °C 25.6 °C 1012.4 hPa North 3.2 km/h 19.3 km/h 76 % 0 mm
09:42 30.2 °C 25 °C 1012.8 hPa West 3.2 km/h 16.1 km/h 74 % 0 mm
09:47 30.1 °C 24.7 °C 1012.8 hPa SSW 12.9 km/h 16.1 km/h 73 % 0 mm
09:52 30.2 °C 25 °C 1013.1 hPa South 6.4 km/h 19.3 km/h 74 % 0 mm
09:57 30.6 °C 25 °C 1013.1 hPa SSE 19.3 km/h 19.3 km/h 72 % 0 mm
10:02 30.5 °C 24.9 °C 1013.1 hPa South 8 km/h 19.3 km/h 72 % 0 mm
10:07 30.9 °C 25.3 °C 1013.1 hPa SSE 4.8 km/h 19.3 km/h 72 % 0 mm
10:12 30.8 °C 24.4 °C 1013.1 hPa SSW 11.3 km/h 19.3 km/h 69 % 0 mm
10:17 30.3 °C 24.2 °C 1012.8 hPa SSW 17.7 km/h 17.7 km/h 70 % 0 mm
10:22 30.3 °C 24.4 °C 1012.4 hPa SSE 16.1 km/h 17.7 km/h 71 % 0 mm
10:27 30.5 °C 24.9 °C 1012.1 hPa SSW 11.3 km/h 19.3 km/h 72 % 0 mm
10:33 30.6 °C 24.3 °C 1012.1 hPa SW 4.8 km/h 22.5 km/h 69 % 0 mm
10:38 30.7 °C 24.4 °C 1012.1 hPa South 6.4 km/h 22.5 km/h 69 % 0 mm
10:43 30.9 °C 24.3 °C 1012.1 hPa SE 6.4 km/h 25.7 km/h 68 % 0 mm
10:48 31.3 °C 25.2 °C 1012.4 hPa WSW 6.4 km/h 25.7 km/h 70 % 0 mm
10:53 31.7 °C 24.8 °C 1012.1 hPa South 6.4 km/h 25.7 km/h 67 % 0 mm
10:58 31.7 °C 24.6 °C 1012.1 hPa SSE 17.7 km/h 20.9 km/h 66 % 0 mm
11:03 32 °C 25.1 °C 1012.1 hPa SE 4.8 km/h 19.3 km/h 67 % 0 mm
11:08 32.5 °C 24.8 °C 1012.4 hPa SSE 16.1 km/h 19.3 km/h 64 % 0 mm
11:13 32.4 °C 24.2 °C 1012.1 hPa SW 6.4 km/h 17.7 km/h 62 % 0 mm
11:18 32.2 °C 24 °C 1012.1 hPa SW 11.3 km/h 16.1 km/h 62 % 0 mm
11:23 32.2 °C 24.3 °C 1012.1 hPa South 9.7 km/h 17.7 km/h 63 % 0 mm
11:28 32.3 °C 24.4 °C 1012.1 hPa SSE 8 km/h 17.7 km/h 63 % 0 mm
11:33 32.6 °C 24.6 °C 1012.1 hPa South 4.8 km/h 17.7 km/h 63 % 0 mm
11:38 32.6 °C 24.6 °C 1012.1 hPa SSE 4.8 km/h 17.7 km/h 63 % 0 mm
11:43 32.7 °C 24.7 °C 1012.1 hPa SE 12.9 km/h 22.5 km/h 63 % 0 mm
11:48 32.8 °C 24.3 °C 1012.1 hPa SSW 6.4 km/h 22.5 km/h 61 % 0 mm
11:53 32.7 °C 24.5 °C 1012.1 hPa South 9.7 km/h 22.5 km/h 62 % 0 mm
11:58 32.7 °C 24.2 °C 1011.7 hPa SSW 6.4 km/h 20.9 km/h 61 % 0 mm
12:03 32.9 °C 24.9 °C 1011.7 hPa SSW 11.3 km/h 20.9 km/h 63 % 0 mm
12:08 33 °C 24.2 °C 1011.7 hPa NW 4.8 km/h 20.9 km/h 60 % 0 mm
12:13 32.9 °C 24.6 °C 1011.7 hPa South 4.8 km/h 17.7 km/h 62 % 0 mm
12:18 33.2 °C 24.9 °C 1011.7 hPa SE 11.3 km/h 17.7 km/h 62 % 0 mm
12:23 33.3 °C 24.5 °C 1011.7 hPa Calm   22.5 km/h 60 % 0 mm
12:28 33.6 °C 24.2 °C 1011.7 hPa WSW 8 km/h 22.5 km/h 58 % 0 mm
12:33 33.6 °C 24.5 °C 1011.7 hPa SW 8 km/h 22.5 km/h 59 % 0 mm
12:38 33.6 °C 23.6 °C 1011.7 hPa SSW 12.9 km/h 20.9 km/h 56 % 0 mm
12:43 33.6 °C 23.9 °C 1011.4 hPa SE 9.7 km/h 20.9 km/h 57 % 0 mm
12:48 33.6 °C 24.5 °C 1011.4 hPa South 14.5 km/h 19.3 km/h 59 % 0 mm
12:53 33.5 °C 24.4 °C 1011.4 hPa ESE 8 km/h 17.7 km/h 59 % 0 mm
12:58 33.8 °C 24.4 °C 1011.4 hPa SSE 4.8 km/h 17.7 km/h 58 % 0 mm
13:03 33.8 °C 24.7 °C 1011.1 hPa SSW 6.4 km/h 16.1 km/h 59 % 0 mm
13:08 33.5 °C 24.9 °C 1011.1 hPa South 4.8 km/h 19.3 km/h 61 % 0 mm
13:13 33.7 °C 24.6 °C 1011.1 hPa South 8 km/h 19.3 km/h 59 % 0 mm
13:18 33.4 °C 24.3 °C 1011.1 hPa South 16.1 km/h 19.3 km/h 59 % 0 mm
13:23 33.3 °C 25 °C 1011.1 hPa SW 4.8 km/h 16.1 km/h 62 % 0 mm
13:28 33.4 °C 24.3 °C 1011.1 hPa SSW 1.6 km/h 16.1 km/h 59 % 0 mm
13:33 33.7 °C 24.3 °C 1011.1 hPa SW 9.7 km/h 17.7 km/h 58 % 0 mm
13:39 33.9 °C 23.6 °C 1011.1 hPa South 9.7 km/h 17.7 km/h 55 % 0 mm
13:43 34.2 °C 23.2 °C 1011.1 hPa SSE 11.3 km/h 17.7 km/h 53 % 0 mm
13:49 34.3 °C 23.7 °C 1011.1 hPa SE 9.7 km/h 25.7 km/h 54 % 0 mm
13:54 34.3 °C 23.7 °C 1011.1 hPa SSE 9.7 km/h 25.7 km/h 54 % 0 mm
13:59 34.4 °C 23.7 °C 1011.1 hPa South 9.7 km/h 25.7 km/h 54 % 0 mm
14:04 34.4 °C 23.4 °C 1010.7 hPa SSE 11.3 km/h 19.3 km/h 53 % 0 mm
14:09 34.3 °C 24.3 °C 1010.7 hPa SE 4.8 km/h 19.3 km/h 56 % 0 mm
14:14 34.8 °C 24.1 °C 1010.7 hPa SSE 11.3 km/h 19.3 km/h 54 % 0 mm
14:19 35 °C 23.7 °C 1010.7 hPa SSW 11.3 km/h 14.5 km/h 52 % 0 mm
14:24 34.8 °C 23.8 °C 1010.4 hPa ENE 1.6 km/h 17.7 km/h 53 % 0 mm
14:29 35 °C 24 °C 1010.7 hPa SW 8 km/h 17.7 km/h 53 % 0 mm
14:34 34.7 °C 23.7 °C 1010.4 hPa SW 9.7 km/h 17.7 km/h 53 % 0 mm
14:39 34.8 °C 24.7 °C 1010.4 hPa SW 12.9 km/h 14.5 km/h 56 % 0 mm
14:44 34.8 °C 23.8 °C 1010.4 hPa SE 8 km/h 17.7 km/h 53 % 0 mm
14:49 34.8 °C 23.5 °C 1010 hPa South 4.8 km/h 17.7 km/h 52 % 0 mm
14:54 34.8 °C 23.8 °C 1010 hPa SE 6.4 km/h 17.7 km/h 53 % 0 mm
14:59 34.8 °C 24.4 °C 1010 hPa SW 3.2 km/h 17.7 km/h 55 % 0 mm
15:04 34.9 °C 23.3 °C 1010 hPa SSW 9.7 km/h 17.7 km/h 51 % 0 mm
15:06 35 °C 23.7 °C 1010 hPa SW 9.7 km/h 17.7 km/h 52 % 0 mm
15:11 35.1 °C 23.1 °C 1010 hPa South 8 km/h 17.7 km/h 50 % 0 mm
15:16 34.8 °C 23.2 °C 1010 hPa East 8 km/h 17.7 km/h 51 % 0 mm
15:21 35.1 °C 23.4 °C 1010 hPa SSE 4.8 km/h 17.7 km/h 51 % 0 mm
15:26 35.5 °C 24.8 °C 1010 hPa West 1.6 km/h 16.1 km/h 54 % 0 mm
15:31 35.8 °C 23.8 °C 1010 hPa SSE 1.6 km/h 12.9 km/h 50 % 0 mm
15:36 35.8 °C 23.1 °C 1010 hPa SW 3.2 km/h 11.3 km/h 48 % 0 mm
15:41 35.7 °C 23.3 °C 1009.7 hPa East 8 km/h 19.3 km/h 49 % 0 mm
15:46 35.6 °C 23.6 °C 1009.7 hPa SE 6.4 km/h 19.3 km/h 50 % 0 mm
15:51 35.2 °C 23.9 °C 1009.7 hPa SSW 4.8 km/h 19.3 km/h 52 % 0 mm
15:56 35.2 °C 23.2 °C 1009.7 hPa SSW 12.9 km/h 14.5 km/h 50 % 0 mm
16:01 35 °C 23.7 °C 1009.7 hPa SSW 6.4 km/h 16.1 km/h 52 % 0 mm
16:06 35.1 °C 23.8 °C 1009.7 hPa WSW 4.8 km/h 16.1 km/h 52 % 0 mm
16:11 35.1 °C 23.8 °C 1009.7 hPa SSE 8 km/h 16.1 km/h 52 % 0 mm
16:16 34.9 °C 23.3 °C 1009.4 hPa SSE 6.4 km/h 16.1 km/h 51 % 0 mm
16:21 34.6 °C 23.6 °C 1009.7 hPa SE 1.6 km/h 16.1 km/h 53 % 0 mm
16:26 34.3 °C 23.7 °C 1009.4 hPa SSW 6.4 km/h 16.1 km/h 54 % 0 mm
16:31 34.1 °C 23.5 °C 1009.4 hPa SSE 8 km/h 12.9 km/h 54 % 0 mm
16:36 34.3 °C 24.3 °C 1009.4 hPa South 4.8 km/h 12.9 km/h 56 % 0 mm
16:41 34.9 °C 24.2 °C 1009.4 hPa South 1.6 km/h 17.7 km/h 54 % 0 mm
16:46 34.8 °C 23.8 °C 1009.4 hPa SSW 6.4 km/h 19.3 km/h 53 % 0 mm
16:51 34.5 °C 23.8 °C 1009.4 hPa South 11.3 km/h 19.3 km/h 54 % 0 mm
16:56 34.3 °C 23.7 °C 1009 hPa SSE 8 km/h 19.3 km/h 54 % 0 mm
17:01 34.4 °C 23.7 °C 1009 hPa South 6.4 km/h 12.9 km/h 54 % 0 mm
17:06 34.9 °C 23.9 °C 1009 hPa South 6.4 km/h 12.9 km/h 53 % 0 mm
17:11 35.1 °C 23.8 °C 1009 hPa SSE 8 km/h 16.1 km/h 52 % 0 mm
17:16 34.8 °C 23.8 °C 1009 hPa SE 4.8 km/h 16.1 km/h 53 % 0 mm
17:21 34.7 °C 23.4 °C 1009 hPa SSE 9.7 km/h 16.1 km/h 52 % 0 mm
17:26 34.9 °C 23.6 °C 1008.7 hPa ESE 6.4 km/h 16.1 km/h 52 % 0 mm
17:31 35.2 °C 24.2 °C 1008.7 hPa SSE 8 km/h 16.1 km/h 53 % 0 mm
17:36 35.3 °C 23.3 °C 1008.7 hPa SE 9.7 km/h 16.1 km/h 50 % 0 mm
17:41 35.2 °C 23.2 °C 1008.7 hPa SSE 11.3 km/h 16.1 km/h 50 % 0 mm
17:46 35.1 °C 23.4 °C 1008.4 hPa SW 4.8 km/h 17.7 km/h 51 % 0 mm
17:47 35.1 °C 23.4 °C 1008.4 hPa South 9.7 km/h 17.7 km/h 51 % 0 mm
17:52 35 °C 23 °C 1008.4 hPa SSE 8 km/h 17.7 km/h 50 % 0 mm
17:57 35 °C 23 °C 1008.4 hPa ESE 12.9 km/h 17.7 km/h 50 % 0 mm
18:02 34.8 °C 23.5 °C 1008.4 hPa SSW 8 km/h 14.5 km/h 52 % 0 mm
18:07 34.4 °C 23.4 °C 1008.4 hPa SSE 11.3 km/h 14.5 km/h 53 % 0 mm
18:12 34.2 °C 23.6 °C 1008.4 hPa SSW 4.8 km/h 16.1 km/h 54 % 0 mm
18:17 34.1 °C 23.5 °C 1008.4 hPa SSE 16.1 km/h 16.1 km/h 54 % 0 mm
18:22 33.8 °C 23.2 °C 1008 hPa SW 11.3 km/h 17.7 km/h 54 % 0 mm
18:27 33.8 °C 23.5 °C 1008 hPa SSE 8 km/h 17.7 km/h 55 % 0 mm
18:32 33.6 °C 23.6 °C 1008 hPa SSE 11.3 km/h 17.7 km/h 56 % 0 mm
18:37 33.6 °C 23.6 °C 1008 hPa SSW 11.3 km/h 16.1 km/h 56 % 0 mm
18:42 33.4 °C 24 °C 1007.7 hPa SSW 3.2 km/h 16.1 km/h 58 % 0 mm
18:47 33.3 °C 23.9 °C 1007.7 hPa SSE 4.8 km/h 16.1 km/h 58 % 0 mm
18:52 33.5 °C 24.1 °C 1007.7 hPa SE 8 km/h 19.3 km/h 58 % 0 mm
18:57 33.6 °C 24.2 °C 1007.7 hPa South 11.3 km/h 19.3 km/h 58 % 0 mm
19:02 33.4 °C 24 °C 1008 hPa SSW 4.8 km/h 19.3 km/h 58 % 0 mm
19:07 33.3 °C 24.2 °C 1007.7 hPa SSW 8 km/h 17.7 km/h 59 % 0 mm
19:12 33.1 °C 24 °C 1007.7 hPa SW 11.3 km/h 19.3 km/h 59 % 0 mm
19:17 33.1 °C 24 °C 1008 hPa SW 12.9 km/h 19.3 km/h 59 % 0 mm
19:22 33 °C 23.9 °C 1008 hPa ESE 8 km/h 19.3 km/h 59 % 0 mm
19:27 32.8 °C 24 °C 1008 hPa SW 12.9 km/h 19.3 km/h 60 % 0 mm
19:32 32.6 °C 24.1 °C 1008 hPa SSW 6.4 km/h 19.3 km/h 61 % 0 mm
19:37 32.5 °C 24 °C 1008 hPa South 6.4 km/h 17.7 km/h 61 % 0 mm
19:42 32.3 °C 24.1 °C 1008 hPa SSE 16.1 km/h 17.7 km/h 62 % 0 mm
19:47 32.1 °C 23.9 °C 1008 hPa South 8 km/h 17.7 km/h 62 % 0 mm
19:52 31.9 °C 24 °C 1008 hPa WSW 12.9 km/h 17.7 km/h 63 % 0 mm
19:57 31.8 °C 23.9 °C 1008 hPa South 6.4 km/h 17.7 km/h 63 % 0 mm
20:02 31.6 °C 24 °C 1008 hPa SSE 6.4 km/h 16.1 km/h 64 % 0 mm
20:07 31.5 °C 24.1 °C 1008 hPa SSE 14.5 km/h 16.1 km/h 65 % 0 mm
20:12 31.4 °C 24.3 °C 1008 hPa SSE 6.4 km/h 16.1 km/h 66 % 0 mm
20:17 31.2 °C 24.3 °C 1008 hPa SSE 6.4 km/h 17.7 km/h 67 % 0 mm
20:22 31.1 °C 24.5 °C 1008 hPa South 8 km/h 17.7 km/h 68 % 0 mm
20:27 30.9 °C 24.3 °C 1008 hPa South 8 km/h 19.3 km/h 68 % 0 mm
20:32 30.7 °C 24.4 °C 1008 hPa ESE 14.5 km/h 20.9 km/h 69 % 0 mm
20:37 30.6 °C 24.3 °C 1008 hPa South 8 km/h 22.5 km/h 69 % 0 mm
20:38 30.6 °C 24.3 °C 1008 hPa SSW 9.7 km/h 22.5 km/h 69 % 0 mm
20:43 30.4 °C 24.3 °C 1008 hPa SSE 9.7 km/h 22.5 km/h 70 % 0 mm
20:48 30.2 °C 24.4 °C 1008 hPa South 8 km/h 22.5 km/h 71 % 0 mm
20:53 30.1 °C 24.3 °C 1008 hPa SSW 11.3 km/h 19.3 km/h 71 % 0 mm
20:58 30 °C 24.4 °C 1008 hPa SSE 8 km/h 19.3 km/h 72 % 0 mm
21:03 29.9 °C 24.3 °C 1008 hPa SSE 6.4 km/h 17.7 km/h 72 % 0 mm
21:08 29.7 °C 24.3 °C 1008 hPa South 9.7 km/h 17.7 km/h 73 % 0 mm
21:13 29.6 °C 24.2 °C 1008 hPa South 16.1 km/h 17.7 km/h 73 % 0 mm
21:18 29.4 °C 24 °C 1008 hPa SSE 9.7 km/h 19.3 km/h 73 % 0 mm
21:23 29.3 °C 24 °C 1008 hPa SSW 12.9 km/h 19.3 km/h 73 % 0 mm
21:28 29.3 °C 24 °C 1008.4 hPa SE 8 km/h 19.3 km/h 73 % 0 mm
21:33 29.2 °C 23.9 °C 1008 hPa SW 8 km/h 20.9 km/h 73 % 0 mm
21:38 29.1 °C 23.8 °C 1008 hPa SSE 9.7 km/h 22.5 km/h 73 % 0 mm
21:43 29.1 °C 24 °C 1008 hPa SE 8 km/h 22.5 km/h 74 % 0 mm
21:48 29 °C 24.1 °C 1008 hPa SSW 8 km/h 27.4 km/h 75 % 0 mm
21:53 28.9 °C 24.2 °C 1008.4 hPa South 11.3 km/h 27.4 km/h 76 % 0 mm
21:58 28.8 °C 24.1 °C 1008.4 hPa SSE 11.3 km/h 27.4 km/h 76 % 0 mm
22:03 28.7 °C 24.3 °C 1008.4 hPa SSE 11.3 km/h 24.1 km/h 77 % 0 mm
22:09 28.7 °C 24.3 °C 1008.4 hPa SSE 12.9 km/h 24.1 km/h 77 % 0 mm
22:14 28.6 °C 24.4 °C 1008.4 hPa SSE 6.4 km/h 19.3 km/h 78 % 0 mm
22:19 28.5 °C 24.3 °C 1008.4 hPa SSW 12.9 km/h 22.5 km/h 78 % 0 mm
22:24 28.4 °C 24.4 °C 1008.4 hPa South 16.1 km/h 27.4 km/h 79 % 0 mm
22:29 28.3 °C 24.3 °C 1008.7 hPa SSW 4.8 km/h 27.4 km/h 79 % 0 mm
22:34 28.3 °C 24.3 °C 1008.7 hPa South 8 km/h 27.4 km/h 79 % 0 mm
22:39 28.1 °C 24.3 °C 1008.7 hPa SE 12.9 km/h 25.7 km/h 80 % 0 mm
22:44 28.1 °C 24.1 °C 1008.7 hPa South 8 km/h 24.1 km/h 79 % 0 mm
22:49 28 °C 24 °C 1008.7 hPa SSW 3.2 km/h 22.5 km/h 79 % 0 mm
22:54 27.9 °C 23.9 °C 1008.7 hPa South 8 km/h 22.5 km/h 79 % 0 mm
22:59 27.8 °C 23.6 °C 1008.7 hPa South 8 km/h 22.5 km/h 78 % 0 mm
23:04 27.8 °C 23.6 °C 1008.7 hPa SW 4.8 km/h 20.9 km/h 78 % 0 mm
23:09 27.8 °C 23.6 °C 1008.7 hPa SSE 8 km/h 19.3 km/h 78 % 0 mm
23:14 27.7 °C 23.7 °C 1008.7 hPa SSE 9.7 km/h 19.3 km/h 79 % 0 mm
23:19 27.7 °C 23.7 °C 1009 hPa SSW 9.7 km/h 19.3 km/h 79 % 0 mm
23:24 27.6 °C 23.6 °C 1008.7 hPa South 9.7 km/h 14.5 km/h 79 % 0 mm
23:29 27.6 °C 23.8 °C 1008.7 hPa SSW 12.9 km/h 16.1 km/h 80 % 0 mm
23:34 27.4 °C 23.6 °C 1009 hPa SSW 6.4 km/h 20.9 km/h 80 % 0 mm
23:39 27.4 °C 23.8 °C 1009 hPa SSW 11.3 km/h 20.9 km/h 81 % 0 mm
23:44 27.4 °C 23.8 °C 1009 hPa SSE 6.4 km/h 20.9 km/h 81 % 0 mm
23:49 27.4 °C 24.1 °C 1009 hPa SSW 4.8 km/h 16.1 km/h 82 % 0 mm
23:54 27.2 °C 23.9 °C 1009 hPa South 4.8 km/h 16.1 km/h 82 % 0 mm
23:59 27.1 °C 24 °C 1009 hPa SE 4.8 km/h 14.5 km/h 83 % 0 mm
Spring, Texas: Villages of Bridgestone
Compliments of Weather Underground - 2.75 mb

Script developed by  Jim McMurry - jmcmurry@mwt.net Adapted for the template by  Wim van der Kuil - Leuven-Template.eu

You find our weather info also at:

UK Metoffice

WeatherCloud

Weather Underground

Mid-South Weather Network

AWEKAS

Citizen Weather Observer Program (CWOP)

HAMweather, WeatherForYou, PWS Weather

Equipment we use:

Weather-station
Davis Vantage Vue

Weather-program
Meteohub

Weather-server
Debian 7.9 x86 (Guest)

Provider
DreamHost

Davis Vantage Vue

Meteohub

Debian 7.9 x86 (Guest)

DreamHost